Weather Roundup
Issued by NWS

Home | Current Version | Previous Version | Text Only | Print | Product List | Glossary On
Versions: 1 2 3 4 5 6 7 8 9 10 11 12 13 14 15 16 17 18 19 20 21 22 23 24 25 26 27 28 29 30 31 32 33 34 35 36 37 38 39 40 41 42 43 44 45 46 47 48 49 50
000
NZUS93 KARX 131559
HRRWXR

CURRENT HOURLY OBSERVATIONS ACROSS
MUCH OF THE UPPER MISSISSIPPI VALLEY
NATIONAL WEATHER SERVICE LA CROSSE WI
1000 AM CST WED DEC 13 2017


...SOUTHEAST MINNESOTA...


CITY           SKY/WX    TMP DP  RH WIND       PRES   REMARKS
ROCHESTER      LGT SNOW  29  26  89 NW30G37   29.39R FOG     WCI  13
ROCHESTER/MAYO CLOUDY    30  24  79 NW13G24   29.38R WCI  20
WINONA         CLOUDY    30  23  74 N7        29.38R WCI  23
AUSTIN         LGT SNOW  32  27  80 NW23G37   29.41R WCI  19
ALBERT LEA     NOT AVBL
DODGE CENTER   CLOUDY    28  27  93 NW23G31   29.42R WCI  14
PRESTON        CLOUDY    32  25  76 NW21G29   29.36R WCI  19
OWATONNA       CLOUDY    30  27  86 NW24G31   29.47R WCI  16
FARIBAULT      CLOUDY    30  27  86 NW21G30   29.48R WCI  17
$$

...ELSEWHERE IN MINNESOTA...


CITY           SKY/WX    TMP DP  RH WIND       PRES   REMARKS
MINNEAPOLIS    CLOUDY    26  24  92 N17G29    29.50R WCI  13
INTNL FALLS    SNOW      15  11  83 NE9       29.65R VSB 1/2 WCI   3
DULUTH         FLURRIES  20  18  92 N8        29.51R WCI  10
RED WING       FLURRIES  25  18  74 N9        29.45R WCI  15
REDWOOD FALLS  CLOUDY    31  26  82 NW26G40   29.63R WCI  17
MANKATO        CLOUDY    34  31  88 NW21G26   29.51R WCI  22
WORTHINGTON    CLOUDY    33  30  88 NW33G40   29.65R WCI  18
FAIRMONT       CLOUDY    32  28  85 NW36G45   29.56R WCI  16
$$

...SOUTHWEST WISCONSIN...


CITY           SKY/WX    TMP DP  RH WIND       PRES   REMARKS
LA CROSSE      CLOUDY    31  22  69 NE6       29.34R WCI  25
PRAIRIE DU CHI CLOUDY    33  24  69 S3        29.31S
BOSCOBEL       CLOUDY    33  23  66 CALM      29.33S
LONE ROCK      NOT AVBL
PLATTEVILLE    CLOUDY    31  25  76 S14       29.31F WCI  21
FORT MC COY    CLOUDY    27  20  76 E6        29.35F WCI  20
MAUSTON-NEW LI CLOUDY    27  19  72 NE6       29.35R WCI  20
VIROQUA        FAIR      27  24  88 SE5       29.29F WCI  22
WIS DELLS      CLOUDY    28  19  68 SE3       29.34S
$$

...ELSEWHERE IN WISCONSIN...


CITY           SKY/WX    TMP DP  RH WIND       PRES   REMARKS
MILWAUKEE      CLOUDY    31  20  63 S12       29.39F WCI  22
MADISON        FLURRIES  29  20  69 S9        29.33F WCI  20
GREEN BAY      LGT SNOW  27  24  89 E8        29.44F FOG     WCI  19
EAU CLAIRE     SNOW      21  17  84 NE7       29.42R VSB 1/4 WCI  12
BLACK RVR FLS  PTSUNNY   25  15  67 NE8       29.35S WCI  16
MEDFORD        FLURRIES  15  10  83 NE9       29.40R WCI   3
WAUSAU         CLOUDY    16  12  84 E7        29.40R WCI   6
WIS RAPIDS     CLOUDY    18  14  84 E12G17    29.37F WCI   5
MARSHFIELD     CLOUDY    18  14  84 E10       29.38R WCI   6
RICE LAKE      LGT SNOW  20  18  91 N9        29.44S WCI  10
$$

...NORTHEAST IOWA...


CITY           SKY/WX    TMP DP  RH WIND       PRES   REMARKS
WATERLOO       CLOUDY    40  29  64 NW26G39   29.39R WCI  29
DUBUQUE        CLOUDY    32  25  75 SW10      29.32F WCI  24
DECORAH        CLOUDY    36  28  75 NW14G22   29.31R WCI  27
MASON CITY     MIX PCPN  34  31  88 NW33G47   29.47R FOG     WCI  20
CHARLES CITY   PTSUNNY   37  32  81 NW28G39   29.40R WCI  25
OELWEIN        CLOUDY    39  30  70 NW31      29.34R WCI  27
$$

...ELSEWHERE IN IOWA...


CITY           SKY/WX    TMP DP  RH WIND       PRES   REMARKS
DES MOINES     LGT RAIN  43  36  76 NW32G41   29.56R
IOWA CITY      MOSUNNY   46  28  49 W18G30    29.41F
FORT DODGE     CLOUDY    38  33  82 NW21G32   29.56R WCI  28
MARSHALLTOWN   CLOUDY    40  35  83 NW35G46   29.47R WCI  28
CEDAR RAPIDS   MOSUNNY   45  29  53 W29G40    29.38S
$$

...NORTHERN ILLINOIS...


CITY           SKY/WX    TMP DP  RH WIND       PRES   REMARKS
CHICAGO-OHARE  CLOUDY    31  18  58 S16G26    29.41F WCI  20
CHICAGO-MIDWAY CLOUDY    31  15  52 S18G30    29.44F WCI  19
MOLINE         CLOUDY    39  25  57 W13G23    29.39F WCI  31
ROCKFORD       CLOUDY    29  22  75 S14       29.38F WCI  18
PEORIA         CLOUDY    36  21  54 SW22G29   29.48F WCI  25
$$

NOTE: "FAIR" INDICATES FEW OR NO CLOUDS BELOW 12,000 FEET WITH NO
SIGNIFICANT WEATHER AND/OR OBSTRUCTIONS TO VISIBILITY. WIND
SPEEDS ARE IN MILES-PER-HOUR.




USA.gov is the U.S. government's official web portal to all federal, state and local government web resources and services.